When you browse on this site, cookies collect data to enhance your experience and personalize the content and advertising you see.
Visit our Privacy Policy to learn more. By continuing to use the site, you agree to this use of cookies and data.
  • en Suisse
  • Liste des pays
  • À 7 jours
  • Température de l'eau
  • Carte satellitaire
  • Carte météo
  • Widgets météo
  • user-avatar
    Se connecter

    Météo par heure à Biskra

    Ce jour, 17 Juin, Lundi

    Heure Température Précipitation Vent Pression Humidité
    00:00 +35°C° 0 mm 6 m/s 749 mmHg 30%
    01:00 +33°C° 0 mm 5 m/s 749 mmHg 32%
    02:00 +32°C° 0 mm 5 m/s 749 mmHg 34%
    03:00 +30°C° 0 mm 4 m/s 749 mmHg 36%
    04:00 +30°C° 0 mm 3 m/s 749 mmHg 36%
    05:00 +31°C° 0 mm 2 m/s 750 mmHg 36%
    06:00 +31°C° 0 mm 2 m/s 750 mmHg 36%
    07:00 +34°C° 0 mm 2 m/s 750 mmHg 33%
    08:00 +35°C° 0 mm 2 m/s 750 mmHg 31%
    09:00 +37°C° 0 mm 2 m/s 750 mmHg 28%
    10:00 +38°C° 0 mm 2 m/s 750 mmHg 25%
    11:00 +39°C° 0 mm 2 m/s 749 mmHg 21%
    12:00 +40°C° 0 mm 3 m/s 749 mmHg 18%
    13:00 +42°C° 0 mm 3 m/s 749 mmHg 17%
    14:00 +42°C° 0 mm 3 m/s 748 mmHg 16%
    15:00 +42°C° 0 mm 2 m/s 748 mmHg 14%
    16:00 +41°C° 0.1 mm 4 m/s 748 mmHg 20%
    17:00 +37°C° 0.1 mm 5 m/s 749 mmHg 26%
    18:00 +35°C° 0.1 mm 6 m/s 749 mmHg 32%
    19:00 +35°C° 0 mm 5 m/s 749 mmHg 31%
    20:00 +35°C° 0 mm 3 m/s 750 mmHg 29%
    21:00 +35°C° 0 mm 2 m/s 751 mmHg 27%
    22:00 +34°C° 0 mm 2 m/s 751 mmHg 29%
    23:00 +34°C° 0 mm 2 m/s 751 mmHg 30%

    Demain, 18 Juin, Mardi

    Heure Température Précipitation Vent Pression Humidité
    00:00 +32°C° 0 mm 2 m/s 751 mmHg 32%
    01:00 +31°C° 0 mm 1 m/s 751 mmHg 33%
    02:00 +31°C° 0 mm 1 m/s 751 mmHg 34%
    03:00 +30°C° 0 mm 1 m/s 750 mmHg 34%
    04:00 +30°C° 0 mm 1 m/s 751 mmHg 33%
    05:00 +31°C° 0 mm 1 m/s 751 mmHg 32%
    06:00 +32°C° 0 mm 1 m/s 751 mmHg 32%
    07:00 +33°C° 0 mm 1 m/s 751 mmHg 29%
    08:00 +35°C° 0 mm 2 m/s 751 mmHg 27%
    09:00 +36°C° 0 mm 2 m/s 752 mmHg 24%
    10:00 +38°C° 0 mm 2 m/s 751 mmHg 22%
    11:00 +39°C° 0 mm 2 m/s 751 mmHg 20%
    12:00 +40°C° 0 mm 2 m/s 751 mmHg 18%
    13:00 +40°C° 0 mm 2 m/s 751 mmHg 17%
    14:00 +42°C° 0 mm 3 m/s 750 mmHg 16%
    15:00 +43°C° 0 mm 3 m/s 750 mmHg 15%
    16:00 +42°C° 0 mm 3 m/s 750 mmHg 15%
    17:00 +42°C° 0 mm 3 m/s 750 mmHg 16%
    18:00 +42°C° 0 mm 4 m/s 750 mmHg 16%
    19:00 +41°C° 0 mm 4 m/s 750 mmHg 17%
    20:00 +40°C° 0 mm 4 m/s 750 mmHg 19%
    21:00 +37°C° 0 mm 4 m/s 751 mmHg 21%
    22:00 +37°C° 0 mm 4 m/s 751 mmHg 21%
    23:00 +36°C° 0 mm 3 m/s 751 mmHg 22%

    Après-demain, 19 Juin, Mercredi

    Heure Température Précipitation Vent Pression Humidité
    00:00 +35°C° 0 mm 3 m/s 751 mmHg 22%
    01:00 +34°C° 0 mm 4 m/s 751 mmHg 25%
    02:00 +33°C° 0 mm 4 m/s 751 mmHg 27%
    03:00 +30°C° 0 mm 5 m/s 751 mmHg 30%
    04:00 +32°C° 0 mm 5 m/s 751 mmHg 29%
    05:00 +32°C° 0 mm 4 m/s 752 mmHg 29%
    06:00 +32°C° 0 mm 4 m/s 752 mmHg 28%
    07:00 +33°C° 0 mm 4 m/s 752 mmHg 26%
    08:00 +34°C° 0 mm 4 m/s 752 mmHg 23%
    09:00 +36°C° 0 mm 3 m/s 752 mmHg 20%
    10:00 +37°C° 0 mm 3 m/s 752 mmHg 19%
    11:00 +38°C° 0 mm 3 m/s 752 mmHg 18%
    12:00 +39°C° 0 mm 2 m/s 751 mmHg 17%
    13:00 +40°C° 0 mm 2 m/s 751 mmHg 16%
    14:00 +41°C° 0 mm 2 m/s 750 mmHg 15%
    15:00 +42°C° 0 mm 2 m/s 749 mmHg 14%
    16:00 +42°C° 0 mm 2 m/s 749 mmHg 14%
    17:00 +43°C° 0 mm 3 m/s 749 mmHg 14%
    18:00 +43°C° 0 mm 3 m/s 749 mmHg 14%
    19:00 +40°C° 0 mm 2 m/s 750 mmHg 15%
    20:00 +39°C° 0 mm 2 m/s 750 mmHg 16%
    21:00 +37°C° 0 mm 1 m/s 751 mmHg 18%
    22:00 +36°C° 0 mm 1 m/s 750 mmHg 19%
    23:00 +35°C° 0 mm 1 m/s 750 mmHg 20%

    20 Juin, Jeudi

    Heure Température Précipitation Vent Pression Humidité
    00:00 +32°C° 0 mm 0 m/s 750 mmHg 21%
    01:00 +34°C° 0 mm 1 m/s 750 mmHg 21%
    02:00 +34°C° 0 mm 1 m/s 750 mmHg 21%
    03:00 +35°C° 0 mm 2 m/s 749 mmHg 20%
    04:00 +35°C° 0 mm 2 m/s 750 mmHg 20%
    05:00 +36°C° 0 mm 2 m/s 750 mmHg 20%
    06:00 +36°C° 0 mm 2 m/s 750 mmHg 19%
    07:00 +38°C° 0 mm 3 m/s 750 mmHg 17%
    08:00 +40°C° 0 mm 4 m/s 750 mmHg 16%
    09:00 +42°C° 0 mm 5 m/s 751 mmHg 14%
    10:00 +43°C° 0 mm 5 m/s 750 mmHg 13%
    11:00 +45°C° 0 mm 5 m/s 750 mmHg 12%
    12:00 +46°C° 0 mm 6 m/s 750 mmHg 12%
    13:00 +46°C° 0 mm 5 m/s 749 mmHg 11%
    14:00 +46°C° 0 mm 5 m/s 749 mmHg 11%
    15:00 +47°C° 0 mm 5 m/s 749 mmHg 10%
    16:00 +47°C° 0 mm 4 m/s 749 mmHg 10%
    17:00 +45°C° 0 mm 4 m/s 749 mmHg 10%
    18:00 +45°C° 0 mm 4 m/s 749 mmHg 10%
    19:00 +44°C° 0 mm 4 m/s 749 mmHg 11%
    20:00 +43°C° 0 mm 5 m/s 749 mmHg 12%
    21:00 +41°C° 0 mm 5 m/s 749 mmHg 13%
    22:00 +41°C° 0 mm 5 m/s 749 mmHg 14%
    23:00 +40°C° 0 mm 6 m/s 749 mmHg 15%

    21 Juin, Vendredi

    Heure Température Précipitation Vent Pression Humidité
    00:00 +39°C° 0 mm 6 m/s 749 mmHg 16%
    01:00 +38°C° 0 mm 6 m/s 749 mmHg 19%
    02:00 +36°C° 0 mm 7 m/s 749 mmHg 22%
    03:00 +35°C° 0 mm 7 m/s 749 mmHg 25%
    04:00 +36°C° 0 mm 7 m/s 749 mmHg 25%
    05:00 +37°C° 0 mm 8 m/s 749 mmHg 24%
    06:00 +37°C° 0 mm 8 m/s 750 mmHg 24%
    07:00 +39°C° 0 mm 8 m/s 750 mmHg 22%
    08:00 +40°C° 0 mm 8 m/s 750 mmHg 19%
    09:00 +43°C° 0 mm 8 m/s 750 mmHg 17%
    10:00 +44°C° 0 mm 7 m/s 750 mmHg 15%
    11:00 +45°C° 0 mm 6 m/s 749 mmHg 14%
    12:00 +46°C° 0 mm 5 m/s 749 mmHg 13%
    13:00 +47°C° 0 mm 6 m/s 748 mmHg 11%
    14:00 +49°C° 0 mm 7 m/s 748 mmHg 10%
    15:00 +50°C° 0 mm 7 m/s 747 mmHg 8%
    16:00 +49°C° 0 mm 7 m/s 747 mmHg 8%
    17:00 +49°C° 0 mm 7 m/s 747 mmHg 8%
    18:00 +47°C° 0 mm 7 m/s 747 mmHg 8%
    19:00 +46°C° 0 mm 6 m/s 747 mmHg 9%
    20:00 +44°C° 0 mm 6 m/s 748 mmHg 10%
    21:00 +42°C° 0 mm 6 m/s 748 mmHg 11%
    22:00 +41°C° 0 mm 7 m/s 748 mmHg 13%
    23:00 +40°C° 0 mm 8 m/s 748 mmHg 16%

    22 Juin, Samedi

    Heure Température Précipitation Vent Pression Humidité
    00:00 +39°C° 0 mm 10 m/s 749 mmHg 19%
    01:00 +38°C° 0 mm 9 m/s 749 mmHg 20%
    02:00 +37°C° 0 mm 9 m/s 749 mmHg 20%
    03:00 +37°C° 0 mm 8 m/s 749 mmHg 21%
    04:00 +37°C° 0 mm 8 m/s 750 mmHg 20%
    05:00 +36°C° 0 mm 7 m/s 750 mmHg 19%
    06:00 +36°C° 0 mm 7 m/s 751 mmHg 18%
    07:00 +38°C° 0 mm 7 m/s 751 mmHg 16%
    08:00 +40°C° 0 mm 7 m/s 751 mmHg 15%
    09:00 +41°C° 0 mm 8 m/s 751 mmHg 13%
    10:00 +43°C° 0 mm 7 m/s 750 mmHg 12%
    11:00 +45°C° 0 mm 7 m/s 750 mmHg 11%
    12:00 +46°C° 0 mm 7 m/s 750 mmHg 10%
    13:00 +47°C° 0 mm 6 m/s 749 mmHg 9%
    14:00 +48°C° 0 mm 6 m/s 749 mmHg 8%
    15:00 +49°C° 0 mm 6 m/s 748 mmHg 8%
    16:00 +48°C° 0 mm 6 m/s 748 mmHg 8%
    17:00 +49°C° 0 mm 7 m/s 748 mmHg 8%
    18:00 +47°C° 0 mm 7 m/s 748 mmHg 8%
    19:00 +46°C° 0 mm 6 m/s 749 mmHg 9%
    20:00 +44°C° 0 mm 6 m/s 749 mmHg 10%
    21:00 +42°C° 0 mm 6 m/s 750 mmHg 11%
    22:00 +40°C° 0 mm 6 m/s 750 mmHg 13%
    23:00 +39°C° 0 mm 7 m/s 750 mmHg 16%
    Voir plus